Fort Knox, KY

6:08 AM EST on December 12, 2019 (GMT -0500)
Godman Army Air Field

Weather History for KFTK - October, 2019

Change the Weather History Date:

Monday, October 28, 2019

  Actual Average Record
Temperature  
Mean Temperature 52 °F -  
Max Temperature 64 °F 63 °F 80 °F (1999)
Min Temperature 41 °F 43 °F 26 °F (1997)
Degree Days  
Heating Degree Days 13    
Growing Degree Days 2 (Base 50)    
Moisture  
Dew Point 48 °F    
Average Humidity 95    
Maximum Humidity 100    
Minimum Humidity 67    
Precipitation  
Precipitation 0.00 in - - ()
Sea Level Pressure  
Sea Level Pressure 30.10 in    
Wind  
Wind Speed 1 mph (WSW)    
Max Wind Speed 9 mph    
Max Gust Speed -    
Visibility 5 miles    
Events Fog    
Averages and records for this station are not official NWS values.
T = Trace of Precipitation, MM = Missing Value Source: NWS Daily Summary

Daily Weather History Graph

Daily Weather History Graph

Search for Another Location

Airport or City:

Astronomy

Oct. 28, 2019 Rise Set
Actual Time 8:05 AM EDT 6:49 PM EDT
Civil Twilight 7:38 AM EDT 7:16 PM EDT
Nautical Twilight 7:07 AM EDT 7:47 PM EDT
Astronomical Twilight 6:36 AM EDT 8:18 PM EDT
Moon 8:26 AM EDT (10/28) 7:34 PM EDT (10/28)
Length of Visible Light 11h 38m
Length of Day
10h 44m
New Moon, 0% of the Moon is Illuminated
Oct 28
New Moon
Nov 4
First Quarter
Nov 12
Full
Nov 19
Last Quarter
Nov 26
New

Hourly Weather History & Observations

Time (EDT) Temp. Windchill Dew Point Humidity Pressure Visibility Wind Dir Wind Speed Gust Speed Precip Events Conditions
12:56 AM 45.3 °F - 45.3 °F 100% 30.08 in 10.0 mi Calm Calm - N/A   Clear
1:16 AM 44.6 °F - 44.6 °F 100% 30.09 in 0.5 mi Calm Calm - N/A   Clear
1:26 AM 44.6 °F 41.4 °F 44.6 °F 100% 30.09 in 2.8 mi SSW 5.8 mph - N/A   Clear
1:41 AM 44.6 °F - 44.6 °F 100% 30.09 in 9.0 mi Calm Calm - N/A   Clear
1:56 AM 45.5 °F - 45.5 °F 100% 30.09 in 10.0 mi Calm Calm - N/A   Clear
2:56 AM 44.1 °F - 44.1 °F 100% 30.10 in 5.0 mi Calm Calm - N/A   Clear
3:11 AM 44.6 °F - 44.6 °F 100% 30.10 in 4.0 mi Calm Calm - N/A   Clear
3:56 AM 45.7 °F - 45.7 °F 100% 30.09 in 6.0 mi Calm Calm - N/A   Clear
4:21 AM 42.8 °F - 42.8 °F 100% 30.10 in 0.4 mi Calm Calm - N/A Fog Fog
4:36 AM 44.6 °F - 44.6 °F 100% 30.09 in 1.8 mi Calm Calm - N/A   Clear
4:51 AM 46.4 °F - 46.4 °F 100% 30.09 in 4.0 mi Calm Calm - N/A   Clear
4:56 AM 44.4 °F - 44.4 °F 100% 30.09 in 4.0 mi Calm Calm - N/A   Clear
5:56 AM 43.5 °F - 43.5 °F 100% 30.09 in 10.0 mi Calm Calm - N/A   Clear
6:11 AM 42.8 °F - 42.8 °F 100% 30.09 in 2.5 mi Calm Calm - N/A   Clear
6:21 AM 42.8 °F - 42.8 °F 100% 30.09 in 0.6 mi Calm Calm - N/A   Clear
6:41 AM 42.8 °F - 42.8 °F 100% 30.09 in 3.0 mi Calm Calm - N/A   Clear
6:56 AM 41.7 °F - 41.7 °F 100% 30.10 in 6.0 mi Calm Calm - N/A   Clear
7:06 AM 42.8 °F - 42.8 °F 100% 30.10 in 0.6 mi Calm Calm - N/A   Clear
7:36 AM 41.0 °F - 41.0 °F 100% 30.12 in 8.0 mi Calm Calm - N/A   Clear
7:51 AM 42.8 °F - 42.8 °F 100% 30.12 in 1.0 mi Calm Calm - N/A   Mist
7:56 AM 41.7 °F - 41.7 °F 100% 30.13 in 0.5 mi Calm Calm - N/A Fog Fog
8:11 AM 41.0 °F - 41.0 °F 100% 30.13 in 0.1 mi Calm Calm - N/A Fog Fog
8:56 AM 42.6 °F - 42.6 °F 100% 30.14 in 0.2 mi Calm Calm - N/A Fog Fog
9:56 AM 47.5 °F - 47.5 °F 100% 30.15 in 0.2 mi Calm Calm - N/A Fog Fog
11:01 AM 53.6 °F - 53.6 °F 100% 30.14 in 1.5 mi Calm Calm - N/A   Overcast
11:16 AM 53.6 °F - 53.6 °F 100% 30.14 in 10.0 mi Calm Calm - N/A   Mostly Cloudy
11:31 AM 55.4 °F - 55.4 °F 100% 30.13 in 10.0 mi Calm Calm - N/A   Partly Cloudy
11:56 AM 57.2 °F - 57.2 °F 100% 30.13 in 10.0 mi West 4.6 mph - N/A   Scattered Clouds
12:44 PM 60.8 °F - 60.8 °F 100% 30.11 in 10.0 mi Calm Calm - N/A   Clear
12:56 PM 61.9 °F - 53.1 °F 73% 30.11 in 10.0 mi SSE 5.8 mph - N/A   Clear
1:26 PM 62.6 °F - 53.6 °F 72% 30.10 in 10.0 mi West 8.1 mph - N/A   Mostly Cloudy
1:56 PM 63.7 °F - 54.1 °F 71% 30.09 in 10.0 mi West 8.1 mph - N/A   Scattered Clouds
2:45 PM 62.6 °F - 53.6 °F 72% 30.07 in 10.0 mi West 9.2 mph - N/A   Clear
2:56 PM 62.4 °F - 53.2 °F 72% 30.07 in 10.0 mi WSW 6.9 mph - N/A   Clear
3:56 PM 63.7 °F - 52.5 °F 67% 30.07 in 10.0 mi SW 6.9 mph - N/A   Partly Cloudy
4:56 PM 62.8 °F - 52.5 °F 69% 30.07 in 10.0 mi WSW 4.6 mph - N/A   Clear
5:56 PM 61.9 °F - 52.3 °F 71% 30.07 in 10.0 mi West 5.8 mph - N/A   Clear
6:56 PM 56.7 °F - 52.2 °F 85% 30.09 in 10.0 mi West 4.6 mph - N/A   Clear
7:56 PM 51.6 °F - 51.6 °F 100% 30.09 in 10.0 mi West 4.6 mph - N/A   Clear
8:56 PM 50.9 °F - 50.9 °F 100% 30.10 in 10.0 mi Calm Calm - N/A   Clear
9:21 PM 48.2 °F - 48.2 °F 100% 30.09 in 0.6 mi Calm Calm - N/A   Clear
9:56 PM 48.0 °F - 48.0 °F 100% 30.10 in 0.6 mi Calm Calm - N/A   Clear
10:11 PM 50.0 °F - 50.0 °F 100% 30.09 in 3.0 mi Calm Calm - N/A   Clear
10:21 PM 48.2 °F - 48.2 °F 100% 30.09 in 0.6 mi Calm Calm - N/A   Clear
10:36 PM 46.4 °F - 46.4 °F 100% 30.10 in 0.9 mi Calm Calm - N/A   Clear
10:51 PM 48.2 °F - 48.2 °F 100% 30.09 in 0.5 mi Calm Calm - N/A Fog Fog
10:56 PM 46.9 °F - 46.9 °F 100% 30.09 in 0.6 mi Calm Calm - N/A   Clear
11:06 PM 48.2 °F - 48.2 °F 100% 30.09 in 1.2 mi Calm Calm - N/A   Clear
11:21 PM 46.4 °F - 46.4 °F 100% 30.09 in 2.0 mi Calm Calm - N/A   Clear
11:31 PM 46.4 °F - 46.4 °F 100% 30.09 in 0.5 mi Calm Calm - N/A Fog Fog
11:56 PM 44.8 °F - 44.8 °F 100% 30.10 in 0.5 mi Calm Calm - N/A Fog Fog